TimeEST,TemperatureF,Dew PointF,Humidity,Sea Level PressureIn,VisibilityMPH,Wind Direction,Wind SpeedMPH,Gust SpeedMPH,PrecipitationIn,Events,Conditions,WindDirDegrees,DateUTC
12:15 AM,53.6,51.8,94,30.27,1.8,Calm,Calm,-,N/A,,Clear,0,2012-12-04 05:15:00
12:22 AM,53.6,53.6,100,30.26,1.5,Calm,Calm,-,N/A,,Clear,0,2012-12-04 05:22:00
12:49 AM,53.6,53.6,100,30.26,0.5,Calm,Calm,-,N/A,Fog,Fog,0,2012-12-04 05:49:00
12:53 AM,54.0,53.1,97,30.26,0.5,Calm,Calm,-,N/A,Fog,Fog,0,2012-12-04 05:53:00
1:08 AM,53.6,53.6,100,30.26,1.8,Calm,Calm,-,N/A,,Clear,0,2012-12-04 06:08:00
1:11 AM,55.4,55.4,100,30.26,3.0,Calm,Calm,-,N/A,,Clear,0,2012-12-04 06:11:00
1:53 AM,51.1,50.0,96,30.26,5.0,Calm,Calm,-,N/A,,Clear,0,2012-12-04 06:53:00
1:58 AM,50.0,50.0,100,30.26,1.8,Calm,Calm,-,N/A,,Clear,0,2012-12-04 06:58:00
2:09 AM,53.6,53.6,100,30.26,3.0,Calm,Calm,-,N/A,,Clear,0,2012-12-04 07:09:00
2:33 AM,51.8,51.8,100,30.25,1.8,Calm,Calm,-,N/A,,Clear,0,2012-12-04 07:33:00
2:37 AM,51.8,51.8,100,30.25,0.8,Calm,Calm,-,N/A,,Clear,0,2012-12-04 07:37:00
2:53 AM,51.1,50.0,96,30.25,0.2,Calm,Calm,-,N/A,Fog,Fog,0,2012-12-04 07:53:00
3:06 AM,51.8,50.0,94,30.25,0.5,Calm,Calm,-,N/A,Fog,Fog,0,2012-12-04 08:06:00
3:28 AM,48.2,48.2,100,30.25,0.5,Calm,Calm,-,N/A,Fog,Fog,0,2012-12-04 08:28:00
3:53 AM,51.1,51.1,100,30.25,0.5,Calm,Calm,-,N/A,Fog,Fog,0,2012-12-04 08:53:00
4:53 AM,50.0,50.0,100,30.25,0.2,Calm,Calm,-,N/A,Fog,Fog,0,2012-12-04 09:53:00
5:20 AM,53.6,51.8,94,30.25,2.0,Calm,Calm,-,N/A,,Clear,0,2012-12-04 10:20:00
5:27 AM,53.6,51.8,94,30.25,10.0,NE,3.5,-,N/A,,Clear,50,2012-12-04 10:27:00
5:36 AM,50.0,50.0,100,30.25,1.8,Calm,Calm,-,N/A,,Clear,0,2012-12-04 10:36:00
5:40 AM,48.2,48.2,100,30.25,0.8,Calm,Calm,-,N/A,,Clear,0,2012-12-04 10:40:00
5:53 AM,51.1,50.0,96,30.25,0.5,Calm,Calm,-,N/A,Fog,Fog,0,2012-12-04 10:53:00
6:15 AM,53.6,51.8,94,30.25,1.8,NNE,3.5,-,N/A,,Clear,20,2012-12-04 11:15:00
6:18 AM,53.6,51.8,94,30.25,3.0,NNE,3.5,-,N/A,,Clear,30,2012-12-04 11:18:00
6:45 AM,51.8,51.8,100,30.27,1.8,NE,3.5,-,N/A,,Clear,40,2012-12-04 11:45:00
6:53 AM,53.1,53.1,100,30.27,1.2,Calm,Calm,-,N/A,,Clear,0,2012-12-04 11:53:00
7:07 AM,55.4,55.4,100,30.28,3.0,NE,3.5,-,N/A,,Clear,40,2012-12-04 12:07:00
7:53 AM,57.9,57.9,100,30.29,10.0,ENE,5.8,-,N/A,,Clear,60,2012-12-04 12:53:00
8:53 AM,64.0,60.1,87,30.31,10.0,NE,4.6,-,N/A,,Clear,40,2012-12-04 13:53:00
9:53 AM,69.1,59.0,70,30.32,10.0,East,5.8,-,N/A,,Clear,90,2012-12-04 14:53:00
10:53 AM,73.9,55.9,53,30.31,10.0,East,8.1,-,N/A,,Clear,80,2012-12-04 15:53:00
11:53 AM,77.0,53.1,43,30.27,10.0,ENE,10.4,-,N/A,,Clear,70,2012-12-04 16:53:00
12:53 PM,79.0,52.0,39,30.25,10.0,ESE,11.5,-,N/A,,Clear,120,2012-12-04 17:53:00
1:53 PM,78.1,51.1,39,30.22,10.0,ESE,6.9,-,N/A,,Clear,110,2012-12-04 18:53:00
2:53 PM,80.1,51.1,36,30.21,10.0,SE,8.1,-,N/A,,Mostly Cloudy,130,2012-12-04 19:53:00
3:53 PM,78.1,52.0,40,30.21,10.0,East,6.9,-,N/A,,Clear,90,2012-12-04 20:53:00
4:53 PM,75.9,54.0,46,30.21,10.0,East,6.9,-,N/A,,Clear,80,2012-12-04 21:53:00
5:53 PM,69.1,55.0,61,30.22,10.0,ENE,3.5,-,N/A,,Clear,60,2012-12-04 22:53:00
6:53 PM,66.9,55.0,66,30.22,10.0,ENE,5.8,-,N/A,,Mostly Cloudy,60,2012-12-04 23:53:00
7:53 PM,66.0,53.1,63,30.23,10.0,East,5.8,-,N/A,,Clear,80,2012-12-05 00:53:00
8:53 PM,66.0,54.0,65,30.23,10.0,East,8.1,-,N/A,,Mostly Cloudy,80,2012-12-05 01:53:00
9:53 PM,64.0,55.0,73,30.23,10.0,East,4.6,-,N/A,,Clear,90,2012-12-05 02:53:00
10:53 PM,61.0,55.0,81,30.22,10.0,Calm,Calm,-,N/A,,Clear,0,2012-12-05 03:53:00
11:53 PM,55.0,52.0,89,30.22,10.0,Calm,Calm,-,N/A,,Clear,0,2012-12-05 04:53:00